When you browse on this site, cookies collect data to enhance your experience and personalize the content and advertising you see.
Visit our Privacy Policy to learn more. By continuing to use the site, you agree to this use of cookies and data.
  • Em Portugal
  • Lista de países
  • Para 7 dias
  • Temperatura da água
  • Mapas de satélite
  • Mapa do tempo
  • Widgets de tempo
  • user-avatar
    Iniciar Sessão

    Previsão horária em Bonarowka

    Hoje, 24 Março, Domingo

    Tempo Temperatura Precipitação Vento Pressão Humidade
    00:00 +8°C° 0 mm 1 m/s 740 mmHg 50%
    01:00 +7°C° 0 mm 1 m/s 740 mmHg 58%
    02:00 +7°C° 0 mm 1 m/s 740 mmHg 63%
    03:00 +7°C° 0 mm 1 m/s 740 mmHg 67%
    04:00 +6°C° 0 mm 2 m/s 740 mmHg 72%
    05:00 +7°C° 0 mm 2 m/s 740 mmHg 78%
    06:00 +7°C° 0 mm 2 m/s 740 mmHg 85%
    07:00 +7°C° 0 mm 3 m/s 740 mmHg 91%
    08:00 +7°C° 0 mm 3 m/s 740 mmHg 86%
    09:00 +8°C° 0 mm 3 m/s 740 mmHg 81%
    10:00 +8°C° 0 mm 3 m/s 740 mmHg 76%
    11:00 +9°C° 0 mm 3 m/s 740 mmHg 69%
    12:00 +10°C° 0 mm 3 m/s 740 mmHg 62%
    13:00 +11°C° 0 mm 3 m/s 739 mmHg 55%
    14:00 +11°C° 0 mm 3 m/s 739 mmHg 52%
    15:00 +12°C° 0 mm 2 m/s 738 mmHg 50%
    16:00 +13°C° 0 mm 2 m/s 738 mmHg 47%
    17:00 +11°C° 0 mm 1 m/s 737 mmHg 51%
    18:00 +10°C° 0 mm 1 m/s 737 mmHg 55%
    19:00 +7°C° 0 mm 0 m/s 737 mmHg 59%
    20:00 +7°C° 0 mm 0 m/s 736 mmHg 58%
    21:00 +8°C° 0 mm 1 m/s 736 mmHg 58%
    22:00 +8°C° 0 mm 1 m/s 736 mmHg 58%
    23:00 +8°C° 0.3 mm 1 m/s 735 mmHg 63%

    Amanhã, 25 Março, Segunda-feira

    Tempo Temperatura Precipitação Vento Pressão Humidade
    00:00 +7°C° 0.3 mm 0 m/s 735 mmHg 68%
    01:00 +6°C° 0.3 mm 0 m/s 734 mmHg 73%
    02:00 +6°C° 0.2 mm 0 m/s 734 mmHg 75%
    03:00 +6°C° 0.2 mm 0 m/s 733 mmHg 77%
    04:00 +7°C° 0.2 mm 1 m/s 732 mmHg 79%
    05:00 +6°C° 0.1 mm 1 m/s 732 mmHg 79%
    06:00 +6°C° 0.1 mm 1 m/s 732 mmHg 78%
    07:00 +6°C° 0.1 mm 1 m/s 732 mmHg 77%
    08:00 +6°C° 0 mm 2 m/s 732 mmHg 72%
    09:00 +7°C° 0 mm 2 m/s 732 mmHg 67%
    10:00 +8°C° 0 mm 2 m/s 731 mmHg 61%
    11:00 +9°C° 0 mm 3 m/s 731 mmHg 58%
    12:00 +10°C° 0 mm 3 m/s 731 mmHg 55%
    13:00 +10°C° 0 mm 3 m/s 730 mmHg 52%
    14:00 +10°C° 0.3 mm 4 m/s 730 mmHg 53%
    15:00 +8°C° 0.3 mm 4 m/s 730 mmHg 55%
    16:00 +8°C° 0.3 mm 5 m/s 730 mmHg 57%
    17:00 +7°C° 0.1 mm 4 m/s 730 mmHg 60%
    18:00 +6°C° 0.1 mm 4 m/s 731 mmHg 64%
    19:00 +5°C° 0.1 mm 3 m/s 731 mmHg 67%
    20:00 +4°C° 0.1 mm 3 m/s 732 mmHg 71%
    21:00 +4°C° 0.1 mm 4 m/s 732 mmHg 74%
    22:00 +3°C° 0.1 mm 4 m/s 733 mmHg 78%
    23:00 +3°C° 0 mm 4 m/s 733 mmHg 79%

    Depois de amanhã, 26 Março, Terça-feira

    Tempo Temperatura Precipitação Vento Pressão Humidade
    00:00 +1°C° 0 mm 4 m/s 734 mmHg 79%
    01:00 +1°C° 0 mm 5 m/s 735 mmHg 80%
    02:00 +1°C° 0 mm 5 m/s 735 mmHg 82%
    03:00 +1°C° 0 mm 5 m/s 735 mmHg 84%
    04:00 0°C° 0 mm 4 m/s 736 mmHg 87%
    05:00 0°C° 0 mm 5 m/s 736 mmHg 86%
    06:00 0°C° 0 mm 5 m/s 737 mmHg 86%
    07:00 0°C° 0 mm 5 m/s 737 mmHg 85%
    08:00 +1°C° 0 mm 5 m/s 738 mmHg 79%
    09:00 +2°C° 0 mm 5 m/s 738 mmHg 73%
    10:00 +3°C° 0 mm 6 m/s 739 mmHg 68%
    11:00 +4°C° 0 mm 6 m/s 738 mmHg 63%
    12:00 +4°C° 0 mm 6 m/s 738 mmHg 58%
    13:00 +5°C° 0 mm 6 m/s 738 mmHg 53%
    14:00 +5°C° 0 mm 7 m/s 737 mmHg 52%
    15:00 +6°C° 0 mm 7 m/s 737 mmHg 51%
    16:00 +6°C° 0 mm 7 m/s 737 mmHg 50%
    17:00 +5°C° 0.1 mm 7 m/s 737 mmHg 54%
    18:00 +4°C° 0.1 mm 6 m/s 737 mmHg 59%
    19:00 +3°C° 0.1 mm 5 m/s 738 mmHg 64%
    20:00 +2°C° 0.1 mm 5 m/s 738 mmHg 66%
    21:00 +3°C° 0.1 mm 4 m/s 739 mmHg 68%
    22:00 +1°C° 0.1 mm 4 m/s 739 mmHg 70%
    23:00 +1°C° 0.1 mm 4 m/s 739 mmHg 70%

    27 Março, Quarta-feira

    Tempo Temperatura Precipitação Vento Pressão Humidade
    00:00 0°C° 0.1 mm 4 m/s 740 mmHg 70%
    01:00 0°C° 0.1 mm 4 m/s 740 mmHg 70%
    02:00 0°C° 0 mm 3 m/s 740 mmHg 69%
    03:00 -2°C° 0 mm 2 m/s 741 mmHg 69%
    04:00 -3°C° 0 mm 2 m/s 741 mmHg 68%
    05:00 -2°C° 0 mm 2 m/s 741 mmHg 63%
    06:00 -2°C° 0 mm 2 m/s 742 mmHg 58%
    07:00 -1°C° 0 mm 2 m/s 742 mmHg 53%
    08:00 0°C° 0 mm 3 m/s 743 mmHg 48%
    09:00 +2°C° 0 mm 3 m/s 743 mmHg 42%
    10:00 +3°C° 0 mm 4 m/s 743 mmHg 37%
    11:00 +4°C° 0 mm 3 m/s 743 mmHg 37%
    12:00 +5°C° 0 mm 3 m/s 743 mmHg 37%
    13:00 +5°C° 0 mm 3 m/s 743 mmHg 37%
    14:00 +5°C° 0 mm 3 m/s 743 mmHg 41%
    15:00 +5°C° 0 mm 3 m/s 743 mmHg 45%
    16:00 +5°C° 0 mm 3 m/s 742 mmHg 49%
    17:00 +5°C° 0 mm 2 m/s 743 mmHg 55%
    18:00 +5°C° 0 mm 1 m/s 743 mmHg 61%
    19:00 +4°C° 0 mm 1 m/s 743 mmHg 67%
    20:00 +3°C° 0 mm 1 m/s 743 mmHg 68%
    21:00 +3°C° 0 mm 1 m/s 743 mmHg 70%
    22:00 +3°C° 0 mm 1 m/s 744 mmHg 71%
    23:00 +3°C° 0 mm 1 m/s 744 mmHg 71%

    28 Março, Quinta-feira

    Tempo Temperatura Precipitação Vento Pressão Humidade
    00:00 +3°C° 0 mm 1 m/s 744 mmHg 72%
    01:00 +3°C° 0 mm 1 m/s 744 mmHg 72%
    02:00 +3°C° 0 mm 1 m/s 744 mmHg 73%
    03:00 +3°C° 0 mm 1 m/s 744 mmHg 73%
    04:00 +3°C° 0 mm 1 m/s 744 mmHg 74%
    05:00 +4°C° 0 mm 1 m/s 744 mmHg 74%
    06:00 +4°C° 0 mm 1 m/s 745 mmHg 74%
    07:00 +5°C° 0 mm 1 m/s 745 mmHg 74%
    08:00 +6°C° 0 mm 1 m/s 745 mmHg 71%
    09:00 +7°C° 0 mm 2 m/s 746 mmHg 67%
    10:00 +8°C° 0 mm 2 m/s 746 mmHg 63%
    11:00 +9°C° 0.1 mm 2 m/s 746 mmHg 61%
    12:00 +9°C° 0.1 mm 2 m/s 746 mmHg 60%
    13:00 +10°C° 0.1 mm 2 m/s 746 mmHg 58%
    14:00 +10°C° 0.1 mm 2 m/s 745 mmHg 58%
    15:00 +10°C° 0.1 mm 2 m/s 745 mmHg 59%
    16:00 +10°C° 0.1 mm 2 m/s 745 mmHg 60%
    17:00 +8°C° 0 mm 2 m/s 745 mmHg 66%
    18:00 +8°C° 0 mm 1 m/s 746 mmHg 73%
    19:00 +6°C° 0 mm 1 m/s 746 mmHg 79%
    20:00 +6°C° 0 mm 1 m/s 746 mmHg 82%
    21:00 +5°C° 0 mm 1 m/s 746 mmHg 84%
    22:00 +4°C° 0 mm 0 m/s 747 mmHg 87%
    23:00 +4°C° 0 mm 0 m/s 747 mmHg 87%

    29 Março, Sexta-feira

    Tempo Temperatura Precipitação Vento Pressão Humidade
    00:00 +3°C° 0 mm 0 m/s 747 mmHg 87%
    01:00 +3°C° 0 mm 0 m/s 747 mmHg 88%
    02:00 +3°C° 0 mm 0 m/s 747 mmHg 88%
    03:00 +2°C° 0 mm 0 m/s 747 mmHg 88%
    04:00 +2°C° 0 mm 0 m/s 747 mmHg 88%
    05:00 +3°C° 0 mm 0 m/s 747 mmHg 85%
    06:00 +4°C° 0 mm 0 m/s 747 mmHg 82%
    07:00 +5°C° 0 mm 0 m/s 748 mmHg 79%
    08:00 +7°C° 0 mm 1 m/s 747 mmHg 72%
    09:00 +9°C° 0 mm 1 m/s 747 mmHg 64%
    10:00 +10°C° 0 mm 2 m/s 747 mmHg 57%
    11:00 +10°C° 0 mm 2 m/s 747 mmHg 54%
    12:00 +12°C° 0 mm 2 m/s 746 mmHg 51%
    13:00 +13°C° 0 mm 2 m/s 746 mmHg 49%
    14:00 +13°C° 0 mm 2 m/s 746 mmHg 49%
    15:00 +13°C° 0 mm 2 m/s 745 mmHg 50%
    16:00 +13°C° 0 mm 2 m/s 745 mmHg 51%
    17:00 +11°C° 0 mm 1 m/s 745 mmHg 57%
    18:00 +10°C° 0 mm 1 m/s 745 mmHg 63%
    19:00 +7°C° 0 mm 0 m/s 744 mmHg 69%
    20:00 +7°C° 0 mm 0 m/s 744 mmHg 70%
    21:00 +8°C° 0 mm 1 m/s 744 mmHg 72%
    22:00 +7°C° 0 mm 1 m/s 744 mmHg 73%
    23:00 +7°C° 0 mm 1 m/s 744 mmHg 75%
    Mostrar mais